Time,TemperatureF,DewpointF,PressureIn,WindDirection,WindDirectionDegrees,WindSpeedMPH,WindSpeedGustMPH,Humidity,HourlyPrecipIn,Conditions,Clouds,dailyrainin,SoftwareType,DateUTC
2013-03-03 00:03:00,22.3,18.2,30.13,East,98,9.0,9.0,84,0.00,,,0.00,Wunderground v.1.15,2013-03-03 06:03:00,
2013-03-03 00:09:00,22.2,18.4,30.13,East,98,11.0,11.0,85,0.00,,,0.00,Wunderground v.1.15,2013-03-03 06:09:00,
2013-03-03 00:16:00,22.3,18.2,30.14,ESE,114,9.0,10.0,84,0.00,,,0.00,Wunderground v.1.15,2013-03-03 06:16:00,
2013-03-03 00:22:00,22.2,18.1,30.13,ESE,114,5.0,8.0,84,0.00,,,0.00,Wunderground v.1.15,2013-03-03 06:22:00,
2013-03-03 00:28:00,22.1,18.0,30.13,ESE,117,8.0,10.0,84,0.00,,,0.00,Wunderground v.1.15,2013-03-03 06:28:00,
2013-03-03 00:33:00,22.0,17.9,30.13,SE,124,7.0,9.0,84,0.00,,,0.00,Wunderground v.1.15,2013-03-03 06:33:00,
2013-03-03 00:39:00,21.9,17.8,30.13,SE,124,6.0,9.0,84,0.00,,,0.00,Wunderground v.1.15,2013-03-03 06:39:00,
2013-03-03 00:44:00,21.7,17.6,30.13,SE,124,5.0,8.0,84,0.00,,,0.00,Wunderground v.1.15,2013-03-03 06:44:00,
2013-03-03 00:51:00,21.5,17.4,30.13,ESE,123,7.0,8.0,84,0.00,,,0.00,Wunderground v.1.15,2013-03-03 06:51:00,
2013-03-03 00:56:00,21.3,17.2,30.13,SE,124,7.0,8.0,84,0.00,,,0.00,Wunderground v.1.15,2013-03-03 06:56:00,
2013-03-03 01:02:00,21.2,17.1,30.13,SE,124,5.0,8.0,84,0.00,,,0.00,Wunderground v.1.15,2013-03-03 07:02:00,
2013-03-03 01:07:00,21.1,17.0,30.12,ESE,123,7.0,9.0,84,0.00,,,0.00,Wunderground v.1.15,2013-03-03 07:07:00,
2013-03-03 01:12:00,20.9,17.1,30.12,SE,124,6.0,9.0,85,0.00,,,0.00,Wunderground v.1.15,2013-03-03 07:12:00,
2013-03-03 01:17:00,21.0,17.2,30.12,SE,131,7.0,9.0,85,0.00,,,0.00,Wunderground v.1.15,2013-03-03 07:17:00,
2013-03-03 01:22:00,20.9,17.1,30.12,SE,132,8.0,8.0,85,0.00,,,0.00,Wunderground v.1.15,2013-03-03 07:22:00,
2013-03-03 01:28:00,21.1,17.3,30.12,SE,145,9.0,9.0,85,0.00,,,0.00,Wunderground v.1.15,2013-03-03 07:28:00,
2013-03-03 01:33:00,21.1,17.3,30.12,SE,146,10.0,11.0,85,0.00,,,0.00,Wunderground v.1.15,2013-03-03 07:33:00,
2013-03-03 01:39:00,20.8,16.7,30.12,SE,146,10.0,11.0,84,0.00,,,0.00,Wunderground v.1.15,2013-03-03 07:39:00,
2013-03-03 01:46:00,20.8,16.7,30.11,SE,146,5.0,10.0,84,0.00,,,0.00,Wunderground v.1.15,2013-03-03 07:46:00,
2013-03-03 01:51:00,20.6,16.8,30.11,SSE,147,4.0,7.0,85,0.00,,,0.00,Wunderground v.1.15,2013-03-03 07:51:00,
2013-03-03 01:56:00,20.4,16.6,30.11,SSE,147,7.0,7.0,85,0.00,,,0.00,Wunderground v.1.15,2013-03-03 07:56:00,
2013-03-03 02:01:00,20.5,16.7,30.11,SSE,147,8.0,8.0,85,0.00,,,0.00,Wunderground v.1.15,2013-03-03 08:01:00,
2013-03-03 02:06:00,20.5,16.7,30.10,SE,146,5.0,9.0,85,0.00,,,0.00,Wunderground v.1.15,2013-03-03 08:06:00,
2013-03-03 02:11:00,20.5,16.7,30.10,SE,146,8.0,8.0,85,0.00,,,0.00,Wunderground v.1.15,2013-03-03 08:11:00,
2013-03-03 02:17:00,20.4,16.6,30.10,SSE,147,7.0,9.0,85,0.00,,,0.00,Wunderground v.1.15,2013-03-03 08:17:00,
2013-03-03 02:22:00,20.3,16.8,30.09,SE,146,4.0,6.0,86,0.00,,,0.00,Wunderground v.1.15,2013-03-03 08:22:00,
2013-03-03 02:27:00,20.1,16.3,30.09,SE,146,3.0,7.0,85,0.00,,,0.00,Wunderground v.1.15,2013-03-03 08:27:00,
2013-03-03 02:32:00,20.0,16.2,30.09,SE,146,3.0,4.0,85,0.00,,,0.00,Wunderground v.1.15,2013-03-03 08:32:00,
2013-03-03 02:37:00,19.9,16.4,30.09,SSE,147,1.0,6.0,86,0.00,,,0.00,Wunderground v.1.15,2013-03-03 08:37:00,
2013-03-03 02:42:00,20.0,16.5,30.09,SSE,147,2.0,5.0,86,0.00,,,0.00,Wunderground v.1.15,2013-03-03 08:42:00,
2013-03-03 02:47:00,20.3,16.8,30.09,SSE,147,3.0,8.0,86,0.00,,,0.00,Wunderground v.1.15,2013-03-03 08:47:00,
2013-03-03 02:52:00,20.1,16.6,30.09,SSE,147,4.0,4.0,86,0.00,,,0.00,Wunderground v.1.15,2013-03-03 08:52:00,
2013-03-03 02:57:00,20.1,16.6,30.08,SE,146,4.0,7.0,86,0.00,,,0.00,Wunderground v.1.15,2013-03-03 08:57:00,
2013-03-03 03:02:00,20.2,16.7,30.08,SSE,147,3.0,5.0,86,0.00,,,0.00,Wunderground v.1.15,2013-03-03 09:02:00,
2013-03-03 03:07:00,20.3,16.8,30.08,SE,146,2.0,9.0,86,0.00,,,0.00,Wunderground v.1.15,2013-03-03 09:07:00,
2013-03-03 03:12:00,19.9,16.4,30.08,SSE,147,2.0,4.0,86,0.00,,,0.00,Wunderground v.1.15,2013-03-03 09:12:00,
2013-03-03 03:17:00,19.7,16.2,30.07,SE,146,3.0,4.0,86,0.00,,,0.00,Wunderground v.1.15,2013-03-03 09:17:00,
2013-03-03 03:22:00,19.6,16.1,30.07,SSE,147,3.0,4.0,86,0.00,,,0.00,Wunderground v.1.15,2013-03-03 09:22:00,
2013-03-03 03:27:00,19.5,16.0,30.07,SE,146,2.0,5.0,86,0.00,,,0.00,Wunderground v.1.15,2013-03-03 09:27:00,
2013-03-03 03:32:00,19.1,15.6,30.07,SSE,147,1.0,3.0,86,0.00,,,0.00,Wunderground v.1.15,2013-03-03 09:32:00,
2013-03-03 03:37:00,18.7,15.2,30.07,SE,146,2.0,4.0,86,0.00,,,0.00,Wunderground v.1.15,2013-03-03 09:37:00,
2013-03-03 03:42:00,18.2,14.7,30.06,SSE,147,1.0,3.0,86,0.00,,,0.00,Wunderground v.1.15,2013-03-03 09:42:00,
2013-03-03 03:47:00,17.9,14.7,30.06,SSE,147,4.0,5.0,87,0.00,,,0.00,Wunderground v.1.15,2013-03-03 09:47:00,
2013-03-03 03:52:00,18.0,14.8,30.06,SSE,147,3.0,5.0,87,0.00,,,0.00,Wunderground v.1.15,2013-03-03 09:52:00,
2013-03-03 03:57:00,17.9,14.7,30.06,SSE,147,3.0,6.0,87,0.00,,,0.00,Wunderground v.1.15,2013-03-03 09:57:00,
2013-03-03 04:02:00,17.8,14.6,30.06,SSE,147,3.0,6.0,87,0.00,,,0.00,Wunderground v.1.15,2013-03-03 10:02:00,
2013-03-03 04:07:00,17.6,14.4,30.06,SSE,147,1.0,6.0,87,0.00,,,0.00,Wunderground v.1.15,2013-03-03 10:07:00,
2013-03-03 04:12:00,17.5,14.3,30.06,SSE,147,3.0,4.0,87,0.00,,,0.00,Wunderground v.1.15,2013-03-03 10:12:00,
2013-03-03 04:17:00,17.6,14.7,30.06,SE,146,5.0,5.0,88,0.00,,,0.00,Wunderground v.1.15,2013-03-03 10:17:00,
2013-03-03 04:22:00,17.6,14.7,30.06,SE,146,2.0,5.0,88,0.00,,,0.00,Wunderground v.1.15,2013-03-03 10:22:00,
2013-03-03 04:27:00,17.5,14.6,30.06,SE,146,3.0,5.0,88,0.00,,,0.00,Wunderground v.1.15,2013-03-03 10:27:00,
2013-03-03 04:32:00,17.5,14.6,30.06,SE,146,4.0,4.0,88,0.00,,,0.00,Wunderground v.1.15,2013-03-03 10:32:00,
2013-03-03 04:37:00,17.6,14.7,30.06,SSE,147,2.0,6.0,88,0.00,,,0.00,Wunderground v.1.15,2013-03-03 10:37:00,
2013-03-03 04:42:00,17.7,14.8,30.06,SE,146,3.0,4.0,88,0.00,,,0.00,Wunderground v.1.15,2013-03-03 10:42:00,
2013-03-03 04:47:00,17.7,14.8,30.06,SSE,147,4.0,6.0,88,0.00,,,0.00,Wunderground v.1.15,2013-03-03 10:47:00,
2013-03-03 04:52:00,17.7,14.8,30.06,SSE,147,3.0,4.0,88,0.00,,,0.00,Wunderground v.1.15,2013-03-03 10:52:00,
2013-03-03 04:57:00,17.6,14.7,30.06,SSE,147,2.0,5.0,88,0.00,,,0.00,Wunderground v.1.15,2013-03-03 10:57:00,
2013-03-03 05:02:00,17.5,14.6,30.06,SE,146,4.0,5.0,88,0.00,,,0.00,Wunderground v.1.15,2013-03-03 11:02:00,
2013-03-03 05:07:00,17.4,14.5,30.06,SE,146,6.0,6.0,88,0.00,,,0.00,Wunderground v.1.15,2013-03-03 11:07:00,
2013-03-03 05:13:00,17.4,14.5,30.06,SE,146,3.0,7.0,88,0.00,,,0.00,Wunderground v.1.15,2013-03-03 11:13:00,
2013-03-03 05:17:00,17.3,14.4,30.06,SE,146,3.0,7.0,88,0.00,,,0.00,Wunderground v.1.15,2013-03-03 11:17:00,
2013-03-03 05:22:00,17.3,14.4,30.06,SE,146,4.0,6.0,88,0.00,,,0.00,Wunderground v.1.15,2013-03-03 11:22:00,
2013-03-03 05:28:00,17.4,14.5,30.06,SSE,147,5.0,6.0,88,0.00,,,0.00,Wunderground v.1.15,2013-03-03 11:28:00,
2013-03-03 05:33:00,17.5,14.6,30.06,SE,146,5.0,6.0,88,0.00,,,0.00,Wunderground v.1.15,2013-03-03 11:33:00,
2013-03-03 05:38:00,17.5,14.6,30.06,SSE,147,3.0,8.0,88,0.00,,,0.00,Wunderground v.1.15,2013-03-03 11:38:00,
2013-03-03 05:43:00,17.5,14.6,30.06,SSE,147,7.0,7.0,88,0.00,,,0.00,Wunderground v.1.15,2013-03-03 11:43:00,
2013-03-03 05:48:00,17.5,14.6,30.05,SSE,147,3.0,7.0,88,0.00,,,0.00,Wunderground v.1.15,2013-03-03 11:48:00,
2013-03-03 05:53:00,17.7,14.8,30.06,SE,146,3.0,5.0,88,0.00,,,0.00,Wunderground v.1.15,2013-03-03 11:53:00,
2013-03-03 05:58:00,17.7,14.8,30.06,SE,146,1.0,5.0,88,0.00,,,0.00,Wunderground v.1.15,2013-03-03 11:58:00,
2013-03-03 06:03:00,17.7,14.8,30.05,SE,146,4.0,5.0,88,0.00,,,0.00,Wunderground v.1.15,2013-03-03 12:03:00,
2013-03-03 06:08:00,17.8,14.8,30.05,SE,146,3.0,5.0,88,0.00,,,0.00,Wunderground v.1.15,2013-03-03 12:08:00,
2013-03-03 06:13:00,17.9,14.9,30.05,SE,146,3.0,5.0,88,0.00,,,0.00,Wunderground v.1.15,2013-03-03 12:13:00,
2013-03-03 06:18:00,18.0,15.0,30.05,SSE,147,4.0,6.0,88,0.00,,,0.00,Wunderground v.1.15,2013-03-03 12:18:00,
2013-03-03 06:23:00,18.0,15.0,30.05,SE,146,4.0,7.0,88,0.00,,,0.00,Wunderground v.1.15,2013-03-03 12:23:00,
2013-03-03 06:28:00,18.0,15.0,30.05,SSE,147,7.0,8.0,88,0.00,,,0.00,Wunderground v.1.15,2013-03-03 12:28:00,
2013-03-03 06:33:00,18.0,14.8,30.04,SE,146,3.0,7.0,87,0.00,,,0.00,Wunderground v.1.15,2013-03-03 12:33:00,
2013-03-03 06:38:00,18.0,14.8,30.05,SE,146,4.0,7.0,87,0.00,,,0.00,Wunderground v.1.15,2013-03-03 12:38:00,
2013-03-03 06:43:00,18.1,14.9,30.04,SE,146,5.0,7.0,87,0.00,,,0.00,Wunderground v.1.15,2013-03-03 12:43:00,
2013-03-03 06:48:00,18.3,15.1,30.04,SE,146,5.0,8.0,87,0.00,,,0.00,Wunderground v.1.15,2013-03-03 12:48:00,
2013-03-03 06:53:00,18.4,15.2,30.04,SE,146,3.0,6.0,87,0.00,,,0.00,Wunderground v.1.15,2013-03-03 12:53:00,
2013-03-03 06:58:00,18.5,15.3,30.04,SE,146,3.0,6.0,87,0.00,,,0.00,Wunderground v.1.15,2013-03-03 12:58:00,
2013-03-03 07:03:00,18.8,15.6,30.04,SE,146,3.0,8.0,87,0.00,,,0.00,Wunderground v.1.15,2013-03-03 13:03:00,
2013-03-03 07:08:00,19.0,15.8,30.04,SSE,147,7.0,8.0,87,0.00,,,0.00,Wunderground v.1.15,2013-03-03 13:08:00,
2013-03-03 07:13:00,19.3,16.1,30.04,SSE,147,6.0,8.0,87,0.00,,,0.00,Wunderground v.1.15,2013-03-03 13:13:00,
2013-03-03 07:18:00,19.5,16.0,30.04,SE,146,5.0,8.0,86,0.00,,,0.00,Wunderground v.1.15,2013-03-03 13:18:00,
2013-03-03 07:23:00,19.7,16.2,30.04,SE,146,5.0,7.0,86,0.00,,,0.00,Wunderground v.1.15,2013-03-03 13:23:00,
2013-03-03 07:28:00,19.7,16.2,30.04,SSE,147,5.0,8.0,86,0.00,,,0.00,Wunderground v.1.15,2013-03-03 13:28:00,
2013-03-03 07:33:00,19.7,16.2,30.03,SE,146,4.0,8.0,86,0.00,,,0.00,Wunderground v.1.15,2013-03-03 13:33:00,
2013-03-03 07:38:00,19.7,15.9,30.03,SSE,147,6.0,8.0,85,0.00,,,0.00,Wunderground v.1.15,2013-03-03 13:38:00,
2013-03-03 07:43:00,19.7,15.9,30.03,SSE,147,4.0,7.0,85,0.00,,,0.00,Wunderground v.1.15,2013-03-03 13:43:00,
2013-03-03 07:48:00,19.8,16.0,30.03,SSE,147,6.0,8.0,85,0.00,,,0.00,Wunderground v.1.15,2013-03-03 13:48:00,
2013-03-03 07:53:00,20.1,16.3,30.03,SSE,147,5.0,7.0,85,0.00,,,0.00,Wunderground v.1.15,2013-03-03 13:53:00,
2013-03-03 07:58:00,20.3,16.5,30.03,SSE,147,5.0,9.0,85,0.00,,,0.00,Wunderground v.1.15,2013-03-03 13:58:00,
2013-03-03 08:04:00,20.3,16.2,30.03,SSE,147,6.0,8.0,84,0.00,,,0.00,Wunderground v.1.15,2013-03-03 14:04:00,
2013-03-03 08:09:00,20.6,16.5,30.03,SSE,147,7.0,8.0,84,0.00,,,0.00,Wunderground v.1.15,2013-03-03 14:09:00,
2013-03-03 08:14:00,21.1,17.0,30.02,SE,146,4.0,8.0,84,0.00,,,0.00,Wunderground v.1.15,2013-03-03 14:14:00,
2013-03-03 08:19:00,21.4,17.0,30.02,SE,146,5.0,10.0,83,0.00,,,0.00,Wunderground v.1.15,2013-03-03 14:19:00,
2013-03-03 08:24:00,21.7,17.3,30.02,SSE,147,8.0,9.0,83,0.00,,,0.00,Wunderground v.1.15,2013-03-03 14:24:00,
2013-03-03 08:29:00,21.9,17.5,30.02,SSE,147,8.0,11.0,83,0.00,,,0.00,Wunderground v.1.15,2013-03-03 14:29:00,
2013-03-03 08:34:00,22.2,17.5,30.02,SSE,147,7.0,10.0,82,0.00,,,0.00,Wunderground v.1.15,2013-03-03 14:34:00,
2013-03-03 08:39:00,22.4,17.7,30.02,SE,146,11.0,12.0,82,0.00,,,0.00,Wunderground v.1.15,2013-03-03 14:39:00,
2013-03-03 08:44:00,22.7,17.7,30.02,SSE,147,6.0,10.0,81,0.00,,,0.00,Wunderground v.1.15,2013-03-03 14:44:00,
2013-03-03 08:49:00,22.9,17.9,30.02,SSE,147,10.0,11.0,81,0.00,,,0.00,Wunderground v.1.15,2013-03-03 14:49:00,
2013-03-03 08:54:00,23.1,18.1,30.01,SE,146,9.0,10.0,81,0.00,,,0.00,Wunderground v.1.15,2013-03-03 14:54:00,
2013-03-03 08:59:00,23.1,17.8,30.02,SSE,147,6.0,11.0,80,0.00,,,0.00,Wunderground v.1.15,2013-03-03 14:59:00,
2013-03-03 09:04:00,23.4,18.4,30.01,SSE,147,6.0,12.0,81,0.00,,,0.00,Wunderground v.1.15,2013-03-03 15:04:00,
2013-03-03 09:09:00,23.9,18.6,30.01,SE,146,8.0,12.0,80,0.00,,,0.00,Wunderground v.1.15,2013-03-03 15:09:00,
2013-03-03 09:14:00,24.3,19.0,30.01,SSE,147,7.0,11.0,80,0.00,,,0.00,Wunderground v.1.15,2013-03-03 15:14:00,
2013-03-03 09:19:00,24.5,18.9,30.02,SE,146,11.0,12.0,79,0.00,,,0.00,Wunderground v.1.15,2013-03-03 15:19:00,
2013-03-03 09:24:00,24.6,19.0,30.02,SE,142,6.0,14.0,79,0.00,,,0.00,Wunderground v.1.15,2013-03-03 15:24:00,
2013-03-03 09:29:00,24.8,19.2,30.01,SE,140,10.0,14.0,79,0.00,,,0.00,Wunderground v.1.15,2013-03-03 15:29:00,
2013-03-03 09:34:00,24.9,19.3,30.01,SE,140,5.0,13.0,79,0.00,,,0.00,Wunderground v.1.15,2013-03-03 15:34:00,
2013-03-03 09:39:00,25.1,19.5,30.01,SE,138,6.0,13.0,79,0.00,,,0.00,Wunderground v.1.15,2013-03-03 15:39:00,
2013-03-03 09:44:00,25.4,19.8,30.01,SE,138,8.0,12.0,79,0.00,,,0.00,Wunderground v.1.15,2013-03-03 15:44:00,
2013-03-03 09:49:00,25.5,19.9,30.01,SE,138,7.0,14.0,79,0.00,,,0.00,Wunderground v.1.15,2013-03-03 15:49:00,
2013-03-03 09:54:00,25.9,20.3,30.01,SE,138,8.0,11.0,79,0.00,,,0.00,Wunderground v.1.15,2013-03-03 15:54:00,
2013-03-03 09:59:00,26.2,20.3,30.01,SE,138,8.0,13.0,78,0.00,,,0.00,Wunderground v.1.15,2013-03-03 15:59:00,
2013-03-03 10:04:00,26.4,20.5,30.01,SE,138,10.0,12.0,78,0.00,,,0.00,Wunderground v.1.15,2013-03-03 16:04:00,
2013-03-03 10:09:00,26.9,20.7,30.00,SE,138,7.0,12.0,77,0.00,,,0.00,Wunderground v.1.15,2013-03-03 16:09:00,
2013-03-03 10:14:00,27.3,21.0,30.00,SE,138,9.0,11.0,77,0.00,,,0.00,Wunderground v.1.15,2013-03-03 16:14:00,
2013-03-03 10:19:00,26.9,20.7,30.00,SE,144,11.0,13.0,77,0.00,,,0.00,Wunderground v.1.15,2013-03-03 16:19:00,
2013-03-03 10:24:00,27.1,20.5,30.00,SE,145,9.0,16.0,76,0.00,,,0.00,Wunderground v.1.15,2013-03-03 16:24:00,
2013-03-03 10:29:00,27.7,21.1,29.99,SE,146,12.0,16.0,76,0.00,,,0.00,Wunderground v.1.15,2013-03-03 16:29:00,
2013-03-03 10:34:00,27.6,20.4,30.00,SSE,153,10.0,17.0,74,0.00,,,0.00,Wunderground v.1.15,2013-03-03 16:34:00,
2013-03-03 10:39:00,27.8,20.6,29.99,SSE,153,10.0,18.0,74,0.00,,,0.00,Wunderground v.1.15,2013-03-03 16:39:00,
2013-03-03 10:44:00,28.3,20.7,29.99,SSE,153,8.0,14.0,73,0.00,,,0.00,Wunderground v.1.15,2013-03-03 16:44:00,
2013-03-03 10:49:00,28.5,21.3,29.99,SSE,149,15.0,15.0,74,0.00,,,0.00,Wunderground v.1.15,2013-03-03 16:49:00,
2013-03-03 10:54:00,28.7,21.8,29.99,SSE,151,9.0,12.0,75,0.00,,,0.00,Wunderground v.1.15,2013-03-03 16:54:00,
2013-03-03 10:59:00,29.0,21.4,29.99,SSE,153,6.0,14.0,73,0.00,,,0.00,Wunderground v.1.15,2013-03-03 16:59:00,
2013-03-03 11:04:00,29.2,21.6,29.99,SSE,153,14.0,15.0,73,0.00,,,0.00,Wunderground v.1.15,2013-03-03 17:04:00,
2013-03-03 11:09:00,29.4,21.8,29.99,SSE,156,13.0,15.0,73,0.00,,,0.00,Wunderground v.1.15,2013-03-03 17:09:00,
2013-03-03 11:14:00,29.7,21.8,29.98,SSE,153,9.0,17.0,72,0.00,,,0.00,Wunderground v.1.15,2013-03-03 17:14:00,
2013-03-03 11:19:00,30.2,22.3,29.98,SSE,152,12.0,17.0,72,0.00,,,0.00,Wunderground v.1.15,2013-03-03 17:19:00,
2013-03-03 11:24:00,30.9,22.9,29.98,SE,145,9.0,15.0,72,0.00,,,0.00,Wunderground v.1.15,2013-03-03 17:24:00,
2013-03-03 11:29:00,30.8,22.2,29.98,SE,144,14.0,19.0,70,0.00,,,0.00,Wunderground v.1.15,2013-03-03 17:29:00,
2013-03-03 11:34:00,31.0,22.7,29.98,SSE,152,14.0,16.0,71,0.00,,,0.00,Wunderground v.1.15,2013-03-03 17:34:00,
2013-03-03 11:39:00,31.4,22.7,29.98,SE,134,6.0,17.0,70,0.00,,,0.00,Wunderground v.1.15,2013-03-03 17:39:00,
2013-03-03 11:44:00,31.1,22.5,29.97,SE,132,10.0,17.0,70,0.00,,,0.00,Wunderground v.1.15,2013-03-03 17:44:00,
2013-03-03 11:49:00,31.3,23.0,29.97,SE,136,8.0,17.0,71,0.00,,,0.00,Wunderground v.1.15,2013-03-03 17:49:00,
2013-03-03 11:54:00,31.7,23.4,29.97,SE,132,10.0,16.0,71,0.00,,,0.00,Wunderground v.1.15,2013-03-03 17:54:00,
2013-03-03 11:59:00,31.6,23.3,29.97,SE,132,10.0,17.0,71,0.00,,,0.00,Wunderground v.1.15,2013-03-03 17:59:00,
2013-03-03 12:04:00,31.4,23.1,29.97,SE,138,9.0,19.0,71,0.00,,,0.00,Wunderground v.1.15,2013-03-03 18:04:00,
2013-03-03 12:09:00,31.4,23.1,29.97,SE,136,14.0,19.0,71,0.00,,,0.00,Wunderground v.1.15,2013-03-03 18:09:00,
2013-03-03 12:14:00,31.5,23.5,29.97,SE,138,11.0,19.0,72,0.00,,,0.00,Wunderground v.1.15,2013-03-03 18:14:00,
2013-03-03 12:19:00,31.7,23.7,29.96,SE,137,12.0,19.0,72,0.00,,,0.00,Wunderground v.1.15,2013-03-03 18:19:00,
2013-03-03 12:25:00,31.5,23.5,29.97,SE,130,17.0,17.0,72,0.00,,,0.00,Wunderground v.1.15,2013-03-03 18:25:00,
2013-03-03 12:31:00,31.6,23.6,29.97,SE,133,14.0,14.0,72,0.00,,,0.00,Wunderground v.1.15,2013-03-03 18:31:00,
2013-03-03 12:36:00,31.5,23.5,29.96,SE,131,17.0,19.0,72,0.00,,,0.00,Wunderground v.1.15,2013-03-03 18:36:00,
2013-03-03 12:42:00,31.5,23.5,29.96,SE,137,9.0,13.0,72,0.00,,,0.00,Wunderground v.1.15,2013-03-03 18:42:00,
2013-03-03 12:47:00,31.8,23.8,29.95,SE,138,8.0,20.0,72,0.00,,,0.00,Wunderground v.1.15,2013-03-03 18:47:00,
2013-03-03 12:52:00,31.8,23.5,29.95,SE,141,12.0,12.0,71,0.00,,,0.00,Wunderground v.1.15,2013-03-03 18:52:00,
2013-03-03 12:57:00,31.9,24.2,29.95,SE,146,7.0,21.0,73,0.00,,,0.00,Wunderground v.1.15,2013-03-03 18:57:00,
2013-03-03 13:02:00,31.9,23.9,29.95,SE,137,14.0,17.0,72,0.00,,,0.00,Wunderground v.1.15,2013-03-03 19:02:00,
2013-03-03 13:07:00,32.0,24.0,29.94,SE,132,10.0,20.0,72,0.00,,,0.00,Wunderground v.1.15,2013-03-03 19:07:00,
2013-03-03 13:12:00,32.2,24.2,29.94,SE,136,11.0,18.0,72,0.00,,,0.00,Wunderground v.1.15,2013-03-03 19:12:00,
2013-03-03 13:17:00,32.1,23.8,29.94,SE,132,15.0,21.0,71,0.00,,,0.00,Wunderground v.1.15,2013-03-03 19:17:00,
2013-03-03 13:22:00,32.4,24.7,29.93,SE,134,6.0,16.0,73,0.00,,,0.00,Wunderground v.1.15,2013-03-03 19:22:00,
2013-03-03 13:27:00,32.4,24.0,29.93,SE,133,10.0,21.0,71,0.00,,,0.00,Wunderground v.1.15,2013-03-03 19:27:00,
2013-03-03 13:32:00,32.5,24.1,29.93,SE,140,10.0,17.0,71,0.00,,,0.00,Wunderground v.1.15,2013-03-03 19:32:00,
2013-03-03 13:37:00,32.8,24.1,29.92,SE,144,21.0,21.0,70,0.00,,,0.00,Wunderground v.1.15,2013-03-03 19:37:00,
2013-03-03 13:42:00,32.6,24.2,29.92,SE,146,16.0,21.0,71,0.00,,,0.00,Wunderground v.1.15,2013-03-03 19:42:00,
2013-03-03 13:47:00,32.6,23.9,29.92,SE,136,13.0,21.0,70,0.00,,,0.00,Wunderground v.1.15,2013-03-03 19:47:00,
2013-03-03 13:52:00,32.9,24.2,29.92,SE,126,20.0,20.0,70,0.00,,,0.00,Wunderground v.1.15,2013-03-03 19:52:00,
2013-03-03 13:57:00,33.1,24.4,29.91,SE,126,18.0,20.0,70,0.00,,,0.00,Wunderground v.1.15,2013-03-03 19:57:00,
2013-03-03 14:02:00,33.2,25.1,29.91,ESE,120,16.0,19.0,72,0.00,,,0.00,Wunderground v.1.15,2013-03-03 20:02:00,
2013-03-03 14:07:00,32.8,23.7,29.91,SE,133,13.0,20.0,69,0.00,,,0.00,Wunderground v.1.15,2013-03-03 20:07:00,
2013-03-03 14:12:00,32.5,24.1,29.91,SE,132,8.0,16.0,71,0.00,,,0.00,Wunderground v.1.15,2013-03-03 20:12:00,
2013-03-03 14:17:00,32.5,24.1,29.91,SE,138,6.0,18.0,71,0.00,,,0.00,Wunderground v.1.15,2013-03-03 20:17:00,
2013-03-03 14:22:00,32.2,23.5,29.91,SE,138,16.0,20.0,70,0.00,,,0.00,Wunderground v.1.15,2013-03-03 20:22:00,
2013-03-03 14:27:00,32.2,23.8,29.91,SSE,150,11.0,20.0,71,0.00,,,0.00,Wunderground v.1.15,2013-03-03 20:27:00,
2013-03-03 14:32:00,32.2,23.8,29.91,SE,129,13.0,20.0,71,0.00,,,0.00,Wunderground v.1.15,2013-03-03 20:32:00,
2013-03-03 14:37:00,32.3,24.3,29.91,SE,128,16.0,20.0,72,0.00,,,0.00,Wunderground v.1.15,2013-03-03 20:37:00,
2013-03-03 14:43:00,32.2,23.8,29.91,SE,136,8.0,17.0,71,0.00,,,0.00,Wunderground v.1.15,2013-03-03 20:43:00,
2013-03-03 14:48:00,32.7,25.0,29.90,ESE,117,14.0,17.0,73,0.00,,,0.00,Wunderground v.1.15,2013-03-03 20:48:00,
2013-03-03 14:53:00,32.8,25.4,29.90,SE,128,8.0,15.0,74,0.00,,,0.00,Wunderground v.1.15,2013-03-03 20:53:00,
2013-03-03 14:58:00,32.6,24.6,29.90,SE,134,13.0,18.0,72,0.00,,,0.00,Wunderground v.1.15,2013-03-03 20:58:00,
2013-03-03 15:03:00,32.5,24.5,29.90,ESE,121,16.0,18.0,72,0.00,,,0.00,Wunderground v.1.15,2013-03-03 21:03:00,
2013-03-03 15:08:00,32.7,25.3,29.90,ESE,121,11.0,18.0,74,0.00,,,0.00,Wunderground v.1.15,2013-03-03 21:08:00,
2013-03-03 15:13:00,32.1,24.4,29.90,SE,132,12.0,19.0,73,0.00,,,0.00,Wunderground v.1.15,2013-03-03 21:13:00,
2013-03-03 15:18:00,31.9,24.2,29.89,SE,136,14.0,19.0,73,0.00,,,0.00,Wunderground v.1.15,2013-03-03 21:18:00,
2013-03-03 15:23:00,32.0,24.6,29.89,SE,126,10.0,15.0,74,0.00,,,0.00,Wunderground v.1.15,2013-03-03 21:23:00,
2013-03-03 15:28:00,32.0,24.6,29.89,SE,129,15.0,17.0,74,0.00,,,0.00,Wunderground v.1.15,2013-03-03 21:28:00,
2013-03-03 15:33:00,31.7,24.0,29.89,SE,127,16.0,17.0,73,0.00,,,0.00,Wunderground v.1.15,2013-03-03 21:33:00,
2013-03-03 15:38:00,31.5,24.5,29.89,ESE,123,12.0,19.0,75,0.00,,,0.00,Wunderground v.1.15,2013-03-03 21:38:00,
2013-03-03 15:43:00,31.4,24.7,29.89,ESE,120,15.0,15.0,76,0.00,,,0.00,Wunderground v.1.15,2013-03-03 21:43:00,
2013-03-03 15:48:00,31.2,24.5,29.89,ESE,119,10.0,19.0,76,0.00,,,0.00,Wunderground v.1.15,2013-03-03 21:48:00,
2013-03-03 15:53:00,31.0,24.3,29.89,SE,129,11.0,15.0,76,0.00,,,0.00,Wunderground v.1.15,2013-03-03 21:53:00,
2013-03-03 15:58:00,31.0,24.6,29.89,ESE,122,14.0,17.0,77,0.00,,,0.00,Wunderground v.1.15,2013-03-03 21:58:00,
2013-03-03 16:03:00,31.0,24.6,29.89,SE,126,10.0,16.0,77,0.00,,,0.00,Wunderground v.1.15,2013-03-03 22:03:00,
2013-03-03 16:08:00,30.7,24.0,29.88,SE,126,9.0,17.0,76,0.00,,,0.00,Wunderground v.1.15,2013-03-03 22:08:00,
2013-03-03 16:13:00,30.7,24.3,29.88,SE,126,12.0,16.0,77,0.00,,,0.00,Wunderground v.1.15,2013-03-03 22:13:00,
2013-03-03 16:18:00,30.6,23.9,29.88,ESE,123,17.0,18.0,76,0.00,,,0.00,Wunderground v.1.15,2013-03-03 22:18:00,
2013-03-03 16:23:00,30.6,23.9,29.88,SE,131,9.0,16.0,76,0.00,,,0.00,Wunderground v.1.15,2013-03-03 22:23:00,
2013-03-03 16:28:00,30.6,24.2,29.88,SE,124,11.0,16.0,77,0.00,,,0.00,Wunderground v.1.15,2013-03-03 22:28:00,
2013-03-03 16:33:00,30.4,23.7,29.88,ESE,121,17.0,17.0,76,0.00,,,0.00,Wunderground v.1.15,2013-03-03 22:33:00,
2013-03-03 16:38:00,30.1,23.8,29.88,SE,133,12.0,18.0,77,0.00,,,0.00,Wunderground v.1.15,2013-03-03 22:38:00,
2013-03-03 16:43:00,30.1,23.8,29.88,SE,137,14.0,14.0,77,0.00,,,0.00,Wunderground v.1.15,2013-03-03 22:43:00,
2013-03-03 16:48:00,30.0,23.7,29.88,SE,124,12.0,17.0,77,0.00,,,0.00,Wunderground v.1.15,2013-03-03 22:48:00,
2013-03-03 16:53:00,30.0,24.0,29.88,ESE,122,9.0,17.0,78,0.00,,,0.00,Wunderground v.1.15,2013-03-03 22:53:00,
2013-03-03 16:58:00,30.0,24.0,29.88,ESE,123,16.0,17.0,78,0.00,,,0.00,Wunderground v.1.15,2013-03-03 22:58:00,
2013-03-03 17:03:00,29.9,23.9,29.87,ESE,115,11.0,19.0,78,0.00,,,0.00,Wunderground v.1.15,2013-03-03 23:03:00,
2013-03-03 17:08:00,29.8,23.8,29.87,SE,129,11.0,19.0,78,0.00,,,0.00,Wunderground v.1.15,2013-03-03 23:08:00,
2013-03-03 17:13:00,29.8,24.1,29.87,SE,130,6.0,15.0,79,0.00,,,0.00,Wunderground v.1.15,2013-03-03 23:13:00,
2013-03-03 17:18:00,29.8,23.8,29.87,SE,126,13.0,17.0,78,0.00,,,0.00,Wunderground v.1.15,2013-03-03 23:18:00,
2013-03-03 17:23:00,29.7,24.0,29.87,SE,125,13.0,16.0,79,0.00,,,0.00,Wunderground v.1.15,2013-03-03 23:23:00,
2013-03-03 17:28:00,29.5,23.8,29.87,ESE,121,13.0,18.0,79,0.00,,,0.00,Wunderground v.1.15,2013-03-03 23:28:00,
2013-03-03 17:33:00,29.4,23.4,29.87,ESE,122,11.0,18.0,78,0.00,,,0.00,Wunderground v.1.15,2013-03-03 23:33:00,
2013-03-03 17:38:00,29.3,23.3,29.86,SE,128,13.0,22.0,78,0.00,,,0.00,Wunderground v.1.15,2013-03-03 23:38:00,
2013-03-03 17:43:00,29.3,23.3,29.87,ESE,119,17.0,22.0,78,0.00,,,0.00,Wunderground v.1.15,2013-03-03 23:43:00,
2013-03-03 17:48:00,29.2,23.5,29.86,ESE,118,11.0,22.0,79,0.00,,,0.00,Wunderground v.1.15,2013-03-03 23:48:00,
2013-03-03 17:53:00,29.1,23.4,29.87,SE,128,8.0,18.0,79,0.00,,,0.00,Wunderground v.1.15,2013-03-03 23:53:00,
2013-03-03 17:58:00,29.0,23.3,29.86,ESE,123,9.0,21.0,79,0.00,,,0.00,Wunderground v.1.15,2013-03-03 23:58:00,
2013-03-03 18:03:00,29.0,23.6,29.86,SE,130,7.0,13.0,80,0.00,,,0.00,Wunderground v.1.15,2013-03-04 00:03:00,
2013-03-03 18:08:00,28.9,23.2,29.86,ESE,117,14.0,14.0,79,0.00,,,0.00,Wunderground v.1.15,2013-03-04 00:08:00,
2013-03-03 18:13:00,28.8,23.1,29.86,SE,124,12.0,15.0,79,0.00,,,0.00,Wunderground v.1.15,2013-03-04 00:13:00,
2013-03-03 18:18:00,28.7,23.0,29.86,ESE,123,15.0,17.0,79,0.00,,,0.00,Wunderground v.1.15,2013-03-04 00:18:00,
2013-03-03 18:23:00,28.6,22.9,29.86,ESE,115,12.0,16.0,79,0.00,,,0.00,Wunderground v.1.15,2013-03-04 00:23:00,
2013-03-03 18:28:00,28.5,22.8,29.86,SE,124,15.0,17.0,79,0.00,,,0.00,Wunderground v.1.15,2013-03-04 00:28:00,
2013-03-03 18:33:00,28.3,22.9,29.86,ESE,116,11.0,17.0,80,0.00,,,0.00,Wunderground v.1.15,2013-03-04 00:33:00,
2013-03-03 18:38:00,28.2,22.8,29.86,SE,125,11.0,18.0,80,0.00,,,0.00,Wunderground v.1.15,2013-03-04 00:38:00,
2013-03-03 18:43:00,28.1,22.7,29.86,ESE,123,10.0,22.0,80,0.00,,,0.00,Wunderground v.1.15,2013-03-04 00:43:00,
2013-03-03 18:48:00,28.1,23.0,29.86,ESE,118,14.0,22.0,81,0.00,,,0.00,Wunderground v.1.15,2013-03-04 00:48:00,
2013-03-03 18:53:00,28.0,22.6,29.86,ESE,119,5.0,15.0,80,0.00,,,0.00,Wunderground v.1.15,2013-03-04 00:53:00,
2013-03-03 18:59:00,27.9,22.8,29.86,ESE,117,12.0,16.0,81,0.00,,,0.00,Wunderground v.1.15,2013-03-04 00:59:00,
2013-03-03 19:04:00,27.8,22.7,29.87,SE,126,10.0,19.0,81,0.00,,,0.00,Wunderground v.1.15,2013-03-04 01:04:00,
2013-03-03 19:09:00,27.6,22.5,29.87,SE,125,11.0,19.0,81,0.00,,,0.00,Wunderground v.1.15,2013-03-04 01:09:00,
2013-03-03 19:14:00,27.6,22.5,29.87,ESE,121,13.0,17.0,81,0.00,,,0.00,Wunderground v.1.15,2013-03-04 01:14:00,
2013-03-03 19:19:00,27.6,22.5,29.87,ESE,117,11.0,17.0,81,0.00,,,0.00,Wunderground v.1.15,2013-03-04 01:19:00,
2013-03-03 19:24:00,27.5,22.4,29.87,ESE,105,10.0,17.0,81,0.00,,,0.00,Wunderground v.1.15,2013-03-04 01:24:00,
2013-03-03 19:29:00,27.4,22.3,29.87,ESE,117,12.0,17.0,81,0.00,,,0.00,Wunderground v.1.15,2013-03-04 01:29:00,
2013-03-03 19:34:00,27.3,22.2,29.87,ESE,118,10.0,14.0,81,0.00,,,0.00,Wunderground v.1.15,2013-03-04 01:34:00,
2013-03-03 19:39:00,27.2,22.1,29.87,ESE,121,9.0,16.0,81,0.00,,,0.00,Wunderground v.1.15,2013-03-04 01:39:00,
2013-03-03 19:44:00,27.1,22.3,29.87,ESE,115,15.0,17.0,82,0.00,,,0.00,Wunderground v.1.15,2013-03-04 01:44:00,
2013-03-03 19:49:00,26.9,22.1,29.87,ESE,117,15.0,18.0,82,0.00,,,0.00,Wunderground v.1.15,2013-03-04 01:49:00,
2013-03-03 19:54:00,26.8,22.0,29.86,ESE,113,17.0,18.0,82,0.00,,,0.00,Wunderground v.1.15,2013-03-04 01:54:00,
2013-03-03 19:59:00,26.8,22.0,29.87,ESE,113,10.0,18.0,82,0.00,,,0.00,Wunderground v.1.15,2013-03-04 01:59:00,
2013-03-03 20:04:00,26.7,21.9,29.86,ESE,122,13.0,18.0,82,0.00,,,0.00,Wunderground v.1.15,2013-03-04 02:04:00,
2013-03-03 20:09:00,26.8,22.3,29.86,ESE,111,17.0,22.0,83,0.00,,,0.00,Wunderground v.1.15,2013-03-04 02:09:00,
2013-03-03 20:14:00,26.8,22.3,29.86,ESE,118,18.0,19.0,83,0.00,,,0.00,Wunderground v.1.15,2013-03-04 02:14:00,
2013-03-03 20:19:00,26.7,21.9,29.86,SE,126,10.0,21.0,82,0.00,,,0.00,Wunderground v.1.15,2013-03-04 02:19:00,
2013-03-03 20:24:00,26.8,22.3,29.86,SE,126,10.0,17.0,83,0.00,,,0.00,Wunderground v.1.15,2013-03-04 02:24:00,
2013-03-03 20:29:00,26.9,22.7,29.86,ESE,118,9.0,17.0,84,0.00,,,0.00,Wunderground v.1.15,2013-03-04 02:29:00,
2013-03-03 20:34:00,26.8,22.3,29.86,SE,130,7.0,20.0,83,0.00,,,0.00,Wunderground v.1.15,2013-03-04 02:34:00,
2013-03-03 20:39:00,26.7,22.2,29.87,SE,129,9.0,20.0,83,0.00,,,0.00,Wunderground v.1.15,2013-03-04 02:39:00,
2013-03-03 20:44:00,26.8,22.6,29.87,ESE,106,13.0,15.0,84,0.00,,,0.00,Wunderground v.1.15,2013-03-04 02:44:00,
2013-03-03 20:49:00,26.8,22.6,29.87,ESE,122,10.0,16.0,84,0.00,,,0.00,Wunderground v.1.15,2013-03-04 02:49:00,
2013-03-03 20:54:00,26.8,22.9,29.87,SE,131,14.0,18.0,85,0.00,,,0.00,Wunderground v.1.15,2013-03-04 02:54:00,
2013-03-03 20:59:00,26.7,22.5,29.87,East,94,13.0,21.0,84,0.00,,,0.00,Wunderground v.1.15,2013-03-04 02:59:00,
2013-03-03 21:04:00,26.7,22.5,29.87,ESE,118,18.0,18.0,84,0.00,,,0.00,Wunderground v.1.15,2013-03-04 03:04:00,
2013-03-03 21:09:00,26.6,22.4,29.87,SE,124,14.0,19.0,84,0.00,,,0.00,Wunderground v.1.15,2013-03-04 03:09:00,
2013-03-03 21:14:00,26.7,22.8,29.87,SE,131,6.0,15.0,85,0.00,,,0.00,Wunderground v.1.15,2013-03-04 03:14:00,
2013-03-03 21:19:00,26.6,22.7,29.87,SE,126,16.0,16.0,85,0.00,,,0.00,Wunderground v.1.15,2013-03-04 03:19:00,
2013-03-03 21:24:00,26.5,24.5,29.87,SE,127,9.0,16.0,92,0.00,,,0.00,Wunderground v.1.15,2013-03-04 03:24:00,
2013-03-03 21:29:00,26.5,22.6,29.87,SE,132,9.0,17.0,85,0.00,,,0.00,Wunderground v.1.15,2013-03-04 03:29:00,
2013-03-03 21:34:00,26.5,22.6,29.88,SE,131,11.0,17.0,85,0.00,,,0.00,Wunderground v.1.15,2013-03-04 03:34:00,
2013-03-03 21:40:00,26.6,22.7,29.88,SE,128,14.0,14.0,85,0.00,,,0.00,Wunderground v.1.15,2013-03-04 03:40:00,
2013-03-03 21:45:00,26.6,22.7,29.88,SE,129,12.0,18.0,85,0.00,,,0.00,Wunderground v.1.15,2013-03-04 03:45:00,
2013-03-03 21:50:00,26.6,22.7,29.88,SE,137,13.0,15.0,85,0.00,,,0.00,Wunderground v.1.15,2013-03-04 03:50:00,
2013-03-03 21:55:00,26.7,22.8,29.88,SE,136,19.0,19.0,85,0.00,,,0.00,Wunderground v.1.15,2013-03-04 03:55:00,
2013-03-03 22:00:00,26.8,22.9,29.87,SE,130,12.0,12.0,85,0.00,,,0.00,Wunderground v.1.15,2013-03-04 04:00:00,
2013-03-03 22:05:00,26.8,23.2,29.88,SE,129,12.0,18.0,86,0.00,,,0.00,Wunderground v.1.15,2013-03-04 04:05:00,
2013-03-03 22:10:00,26.8,23.2,29.87,ESE,123,12.0,15.0,86,0.00,,,0.00,Wunderground v.1.15,2013-03-04 04:10:00,
2013-03-03 22:15:00,26.9,23.3,29.87,ESE,122,9.0,15.0,86,0.00,,,0.00,Wunderground v.1.15,2013-03-04 04:15:00,
2013-03-03 22:20:00,26.9,23.5,29.87,SE,131,15.0,15.0,87,0.00,,,0.00,Wunderground v.1.15,2013-03-04 04:20:00,
2013-03-03 22:25:00,26.9,23.5,29.87,SE,125,11.0,16.0,87,0.00,,,0.00,Wunderground v.1.15,2013-03-04 04:25:00,
2013-03-03 22:30:00,26.8,23.4,29.87,SE,129,15.0,17.0,87,0.00,,,0.00,Wunderground v.1.15,2013-03-04 04:30:00,
2013-03-03 22:35:00,26.7,23.4,29.87,SE,136,14.0,19.0,87,0.00,,,0.00,Wunderground v.1.15,2013-03-04 04:35:00,
2013-03-03 22:40:00,26.8,23.4,29.87,SE,125,8.0,11.0,87,0.00,,,0.00,Wunderground v.1.15,2013-03-04 04:40:00,
2013-03-03 22:45:00,26.6,23.3,29.87,SSE,147,10.0,17.0,87,0.00,,,0.00,Wunderground v.1.15,2013-03-04 04:45:00,
2013-03-03 22:52:00,26.4,23.1,29.86,SE,126,10.0,13.0,87,0.00,,,0.00,Wunderground v.1.15,2013-03-04 04:52:00,
2013-03-03 22:57:00,26.3,23.0,29.86,SE,129,5.0,14.0,87,0.00,,,0.00,Wunderground v.1.15,2013-03-04 04:57:00,
2013-03-03 23:02:00,26.2,23.1,29.86,SE,134,7.0,10.0,88,0.00,,,0.00,Wunderground v.1.15,2013-03-04 05:02:00,
2013-03-03 23:07:00,26.2,23.1,29.86,SE,132,12.0,16.0,88,0.00,,,0.00,Wunderground v.1.15,2013-03-04 05:07:00,
2013-03-03 23:12:00,26.1,23.0,29.86,SE,133,11.0,11.0,88,0.00,,,0.00,Wunderground v.1.15,2013-03-04 05:12:00,
2013-03-03 23:17:00,26.0,22.7,29.86,SE,132,11.0,14.0,87,0.00,,,0.00,Wunderground v.1.15,2013-03-04 05:17:00,
2013-03-03 23:22:00,26.0,22.9,29.85,ESE,119,14.0,14.0,88,0.00,,,0.00,Wunderground v.1.15,2013-03-04 05:22:00,
2013-03-03 23:27:00,25.9,22.8,29.85,SE,131,15.0,16.0,88,0.00,,,0.00,Wunderground v.1.15,2013-03-04 05:27:00,
2013-03-03 23:32:00,25.8,22.7,29.85,SE,125,12.0,15.0,88,0.00,,,0.00,Wunderground v.1.15,2013-03-04 05:32:00,
2013-03-03 23:37:00,25.8,22.7,29.85,SE,125,15.0,20.0,88,0.00,,,0.00,Wunderground v.1.15,2013-03-04 05:37:00,
2013-03-03 23:42:00,25.9,22.8,29.84,SE,128,9.0,16.0,88,0.00,,,0.00,Wunderground v.1.15,2013-03-04 05:42:00,
2013-03-03 23:47:00,26.0,22.9,29.84,SE,133,12.0,18.0,88,0.00,,,0.00,Wunderground v.1.15,2013-03-04 05:47:00,
2013-03-03 23:53:00,25.9,22.8,29.83,ESE,119,17.0,17.0,88,0.00,,,0.00,Wunderground v.1.15,2013-03-04 05:53:00,
2013-03-03 23:58:00,25.8,22.7,29.83,ESE,112,16.0,19.0,88,0.00,,,0.00,Wunderground v.1.15,2013-03-04 05:58:00,